User: anonymous   Login
Location: Monfort
(47.1967°N, 0.2115°W)
Time: 02:27:30
(UTC+00:00)
Language:

Cosmos 1939 Rocket - Orbit

View from above orbital plane
View from above orbital plane
View from above satellite
View from above satellite

Ground track
Ground track

The orbit data is extracted from the following two-line orbital elements,

1 19046U 88032B   21018.40023744  .00000695  00000-0  55541-4 0  9991
2 19046  97.3906  35.8015 0036894 193.3091 166.7165 15.02826435769240
Epoch (UTC): 18 January 2021 09:36:20
Eccentricity: 0.0036894
inclination: 97.3906°
perigee height: 532 km
apogee height: 584 km
right ascension of ascending node: 35.8015°
argument of perigee: 193.3091°
revolutions per day: 15.02826435
mean anomaly at epoch: 166.7165°
orbit number at epoch: 76924

The dashed part of the orbit path shows where the satellite is in the earth's shadow,  

DLR